User: anonymous   Login
Location: Domont
(49.0278°N, 2.3264°E)
Time: 17:05:18
(UTC+00:00)
Language:

Okean 1-7 Rocket - Orbit

View from above orbital plane
View from above orbital plane
View from above satellite
View from above satellite

Ground track
Ground track

The orbit data is extracted from the following two-line orbital elements,

1 23318U 94066B   22024.60312813  .00000123  00000-0  13415-4 0  9990
2 23318  82.5395  48.2351 0024912 127.0770 233.2726 14.78948623471038
Epoch (UTC): 24 January 2022 14:28:30
Eccentricity: 0.0024912
inclination: 82.5395°
perigee height: 615 km
apogee height: 650 km
right ascension of ascending node: 48.2351°
argument of perigee: 127.0770°
revolutions per day: 14.78948623
mean anomaly at epoch: 233.2726°
orbit number at epoch: 47103

The dashed part of the orbit path shows where the satellite is in the earth's shadow,  

DLR